Location: Domont
(49.0278°N, 2.3264°E)
Time: 00:39:28
(UTC+00:00)

Iridium 4 Rocket - Pass Details

Date: 16 October 2021
Orbit: 585 x 903 km, 86.9° (Epoch: 27 November)

Event Time Altitude Azimuth Distance (km) Brightness Sun altitude
Rises 17:44:57 0° 7° (N) 2,868 6.4 -8.3°
Reaches altitude 10° 17:47:26 10° 21° (NNE) 1,988 5.4 -8.7°
Maximum altitude 17:51:05 26° 78° (ENE) 1,282 4.1 -9.3°
Drops below altitude 10° 17:54:55 10° 134° (SE) 2,101 5.4 -10.0°
Sets 17:57:36 0° 147° (SSE) 3,068 6.3 -10.4°
